SCP
0 0 0 0 0 0 1 1 1 0 0 0 0 0 0 0 0 0 0 0 0 0 0 0 0 0 0 0 0 0 0 0 0 0 0 0 0 0 0 0 0 0 0
0 0 0 0 0 0 0 0 0 0 0 0 0 0 0 0 0 0 0 0 0 0 0 0 0 0 0 0 0 0 0 0 0 0 0 0 0 0 0 0 0 0 0
0 0 0 0 0 0 0 0 0 0 0 0 0 0 0 0 0 0 0 0 0 0 0 0 0 0 0 0 0 0 0 0 0 0 0 0 0 0 0 0 0 0 0
0 0 0 0 0 0 0 0 0 0 0 0 0 0 0 0 0 0 0 0 0 0 0 0 0 0 0 0 0 0 0 0 0 0 0 0 0 0 0 0 0 0 0
0 0 0 0 0 0 0 0 0 0 0 0 0 0 0 0 0 0 0 0 0 0 0 0 0 0 0 0 0 0 0 0 0 0 0 0 0 0 0 0 0 0 0
0 0 0 0 0 0 0 0 0 0 0 0 0 0 0 0 0 0 0 0 0 0 0 0 0 0 0 0 0 0 0 0 0 0 0 0 0 0 0 0 0 0 0
0 0 0 0 0 0 0 0 0 0 0 0 0 0 0 0 0 0 0 0 0 0 0 0 0 0 0 0 0 0 0 0 0 0 0 0 0 0 0 0 0 0 0
0 0 0 0 0 0 0 0 0 0 0 0 0 0 0 0 0 0 0 0 0 0 0 0 0 0 0 0 0 0 0 0 0 0 0 0 0 0 0 0 0 0 0
0 0 0 0 0 0 0 0 0 0 0 0 0 0 0 0 0 0 0 0 0 0 0 0 0 0 0 0 0 0 0 0 0 0 0 0 0 0 0 0 0 0 0
0 0 0 0 0 0 0 0 0 0 0 0 0 0 0 0 0 0 0 0 0 0 0 0 0 0 0 0 0 0 0 0 0 0 0 0 0 0 0 0 0 0 0
0 0 0 0 0 0 0 0 0 0 0 0 0 0 0 0 0 0 0 0 0 0 0 0 0 0 0 0 0 0 0 0 0 0 0 0 0 0 0 0 0 0 0
0 0 0 0 0 0 0 0 0 0 0 0 0 0 0 0 0 0 0 0 0 0 0 0 0 0 0 0 0 0 0 0 0 0 0 0 0 0 0 0 0 0 0
0 0 0 0 0 0 0 0 0 0 0 0 0 0 0 0 0 0 0 0 0 0 0 0 0 0 0 0 0 0 0 0 0 0 0 0 0 0 0 0 0 0 0
0 0 0 0 0 0 0 0 0 0 0 0 0 0 0 0 0 0 0 0 0 0 0 0 0 0 0 0 0 0 0 0 0 0 0 0 0 0 0 0 0 0 0
0 0 0 0 0 0 0 0 0 0 0 0 0 0 0 0 0 0 0 0 0 0 0 0 0 0 0 0 0 0 0 0 0 0 0 0 0 0 0 0 0 0 0
0 0 0 0 0 0 0 0 0 0 0 0 0 0 0 0 0 0 0 0 0 0 0 0 0 0 0 0 0 0 0 0 0 0 0 0 0 0 0 0 0 0 0
0 0 0 0 0 0 0 0 0 0 0 0 0 0 0 0 0 0 0 0 0 0 0 0 0 0 0 0 0 0 0 0 0 0 0 0 0 0 0 0 0 0 0
0 0 0 0 0 0 0 0 0 0 0 0 0 0 0 0 0 0 0 0 0 0 0 0 0 0 0 0 0 0 0 0 0 0 0 0 0 0 0 0 0 0 0
0 0 0 0 0 0 0 0 0 0 0 0 0 0 0 0 0 0 0 0 0 0 0 0 0 0 0 0 0 0 0 0 0 0 0 0 0 0 0 0 0 0 0
0 0 0 0 0 0 0 0 0 0 0 0 0 0 0 0 0 0 0 0 0 0 0 0 0 0 0 0 0 0 0 0 0 0 0 0 0 0 0 0 0 0 0
0 0 0 0 0 0 0 0 0 0 0 0 0 0 0 0 0 0 0 0 0 0 0 0 0 0 0 0 0 0 0 0 0 0 0 0 0 0 0 0 0 0 0
0 0 0 0 0 0 0 0 0 0 0 0 0 0 0 0 0 0 0 0 0 0 0 0 0 0 0 0 0 0 0 0 0 0 0 0 0 0 0 0 0 0 0
0 0 0 0 0 0 0 0 0 0 0 0 0 0 0 0 0 0 0 0 0 0 0 0 0 0 0 0 0 0 0 0 0 0 0 0 0 0 0 0 0 0 0
0 0 0 0 0 0 0 0 0 0 0 0 0 0 0 0 0 0 0 0 0 0 0 0 0 0 0 0 0 0 0 0 0 0 0 0 0 0 0 0 0 0 0
0 0 0 0 0 0 0 0 0 0 0 0 0 0 0 0 0 0 0 0 0 0 0 0 0 0 0 0 0 0 0 0 0 0 0 0 0 0 0 0 0 0 0
0 0 0 0 0 0 0 0 0 0 0 0 0 0 0 0 0 0 0 0 0 0 0 0 0 0 0 -0 0 0 0 0 0 0 0 0 0 0 0 0 0 0 0
Wind_Speed
3 2 2 2 2 2 2 2 2 3 3 2 2 3 3 3 3 3 3 9 11 12 12 12 12 13 12 12 11 11 11 11 11 10 10 11 11 11 10 10 10 10 10
3 2 2 2 2 2 2 2 2 2 2 2 2 2 2 3 3 3 3 5 10 11 11 12 12 13 13 12 11 11 11 11 10 10 10 10 11 10 11 10 10 10 11
3 3 2 1 1 1 1 1 1 1 1 1 2 2 2 2 3 3 3 3 4 8 10 11 12 12 12 12 12 11 11 11 11 10 10 10 10 10 10 10 10 11 11
3 2 2 2 1 1 1 1 1 1 1 1 1 2 2 2 3 3 3 3 3 4 7 10 11 11 12 12 12 11 11 10 10 10 10 10 10 9 9 10 10 10 11
3 2 2 2 2 1 1 1 1 1 1 1 2 2 2 2 3 3 3 4 4 4 4 7 10 11 11 11 11 10 10 10 10 10 11 11 11 10 10 10 10 10 11
3 2 2 2 2 1 0 0 1 1 1 1 2 2 2 3 2 3 3 3 3 4 5 5 4 6 10 10 10 10 10 10 10 10 11 11 10 10 10 10 10 10 11
3 3 1 1 1 1 1 1 1 0 0 0 1 2 3 3 2 2 2 2 2 3 4 4 3 3 3 7 8 9 9 10 10 10 9 9 8 9 9 10 10 10 10
2 2 2 1 1 1 0 1 1 1 0 0 1 0 2 4 3 2 1 1 2 1 2 4 3 4 3 2 4 7 8 8 9 9 9 8 8 9 8 8 8 8 8
2 2 2 2 1 1 1 1 1 2 1 1 1 2 1 2 3 3 2 1 1 1 2 2 3 4 4 3 2 4 6 6 7 7 7 7 7 8 7 7 7 8 8
1 1 1 2 1 1 1 1 1 1 2 1 1 1 2 2 1 3 3 2 2 2 2 2 2 2 3 3 3 4 4 5 6 6 7 7 6 7 7 7 7 8 9
0 1 1 1 1 1 1 0 0 1 1 2 2 1 1 1 2 2 3 3 3 2 2 2 2 2 3 3 3 4 4 3 4 5 6 7 7 7 7 7 6 7 7
1 0 1 1 1 0 0 1 1 1 1 1 1 2 2 2 2 2 2 2 3 3 2 2 2 2 2 3 4 5 4 3 3 4 5 6 7 7 7 7 7 7 7
1 1 1 1 1 1 1 1 1 1 1 1 2 2 2 3 2 2 2 2 2 2 2 2 2 2 2 2 3 6 4 3 3 3 4 5 6 6 6 6 6 6 6
2 1 1 1 1 1 1 0 0 1 1 1 2 2 2 2 2 2 2 2 1 2 2 3 1 1 2 2 3 5 3 4 3 3 2 3 4 5 5 5 5 5 6
2 1 1 1 1 1 1 0 1 1 1 1 2 2 2 2 2 2 2 3 3 2 3 3 1 1 1 2 3 3 3 4 4 3 3 3 4 5 5 5 5 5 5
1 1 1 1 1 0 0 0 1 1 0 1 1 2 2 2 2 2 2 2 3 3 3 2 2 1 1 2 3 3 3 4 5 4 4 3 4 5 5 6 6 6 6
1 1 1 1 1 0 0 0 1 1 1 1 1 1 2 2 1 1 1 1 2 2 2 2 1 1 1 2 1 1 2 2 2 4 4 4 4 4 5 5 6 6 6
1 1 1 0 0 0 0 0 1 1 1 1 2 2 2 2 2 2 1 1 1 1 2 2 1 1 1 1 2 1 1 1 1 3 4 5 5 5 5 5 6 6 6
1 1 1 1 1 1 1 1 1 1 1 1 1 1 2 1 2 2 2 1 1 1 1 1 1 0 0 0 1 0 0 0 1 2 3 4 5 5 5 6 6 7 7
2 1 1 1 1 1 1 1 1 1 1 1 1 1 2 2 2 2 1 1 1 1 1 1 1 0 0 0 1 1 0 1 1 1 1 2 4 5 6 7 7 8 9
2 2 2 1 1 1 1 1 1 1 1 2 2 2 2 2 2 2 1 1 1 1 1 1 1 1 1 1 1 1 1 1 1 1 1 1 1 2 3 5 7 8 9
1 2 1 1 1 0 1 1 1 1 1 1 2 3 2 2 3 2 2 2 2 2 2 2 1 2 2 2 1 1 1 1 2 1 1 2 2 2 3 3 6 9 9
2 1 1 1 0 1 1 2 2 1 1 2 2 2 2 2 3 2 2 2 2 2 3 3 3 3 3 3 3 2 2 2 3 2 2 2 2 3 3 5 8 10 10
2 1 1 0 0 1 1 1 2 1 1 1 1 1 1 2 2 2 1 2 2 2 2 2 3 4 3 3 4 4 3 2 2 1 2 2 2 2 3 3 7 10 11
1 1 1 1 0 2 2 1 2 1 1 2 2 1 0 1 3 3 2 2 2 3 2 1 3 3 4 4 4 2 2 1 1 2 2 2 2 1 1 2 4 8 10
1 1 1 1 1 2 2 1 1 1 1 1 2 2 1 1 2 2 1 1 2 3 2 2 2 3 3 4 5 5 4 3 2 2 2 3 2 1 1 2 2 2 4
Wind_Direction
197 196 201 197 199 206 215 220 218 217 228 235 231 227 228 226 215 210 231 225 218 218 215 213 209 208 205 202 201 202 204 206 206 206 205 204 205 207 209 211 209 207 207
185 180 181 187 205 212 218 219 221 210 221 233 246 245 236 233 226 212 222 230 223 218 216 215 215 214 212 209 209 209 209 212 210 209 207 206 208 210 212 212 212 211 210
174 169 163 180 213 220 208 207 228 203 208 242 260 261 255 250 237 226 220 223 231 226 223 223 219 216 216 214 215 215 213 213 214 213 211 209 209 212 214 214 215 214 213
160 156 163 188 203 213 179 174 188 209 219 227 252 259 257 258 250 239 233 228 225 232 229 228 224 219 218 217 219 220 219 217 216 215 214 215 213 213 216 218 218 217 216
166 164 175 186 173 165 168 192 169 189 207 262 262 260 263 260 256 258 249 239 228 223 221 231 224 220 220 223 223 224 223 223 222 221 221 222 220 216 216 218 219 217 218
155 153 168 165 154 157 190 156 182 200 186 225 284 296 282 269 260 250 251 249 230 225 219 223 220 226 221 223 224 224 227 229 227 225 225 224 221 216 215 217 219 217 218
148 146 155 139 136 158 194 178 174 181 256 95 37 328 310 291 276 261 250 250 244 232 216 213 213 215 223 224 224 224 229 234 234 229 225 223 221 217 215 219 219 218 217
144 148 138 145 147 144 199 187 130 120 280 122 131 10 330 331 331 313 301 272 272 259 226 214 206 204 203 201 227 233 238 242 242 232 225 222 222 219 216 217 216 215 215
143 136 141 145 159 142 180 186 158 154 219 279 168 165 181 255 304 307 301 302 308 290 265 236 211 207 197 187 204 231 238 243 238 229 222 218 219 213 210 213 214 212 210
101 114 133 135 128 121 134 210 175 182 169 228 276 225 205 192 217 300 309 304 305 284 275 264 221 197 183 180 200 210 226 237 235 229 221 214 212 208 210 213 217 216 211
12 115 120 117 121 118 123 127 286 199 180 197 209 228 253 245 213 218 280 304 312 287 273 256 222 205 187 179 193 201 202 219 229 225 220 220 217 215 216 215 215 214 210
296 221 132 126 126 118 176 227 236 247 231 220 219 206 206 220 228 219 245 272 279 279 277 257 224 209 197 183 193 186 188 194 212 223 223 220 219 218 218 220 215 209 206
239 243 171 165 162 204 225 222 237 261 246 234 228 225 223 225 212 207 220 253 268 284 294 283 244 210 192 183 193 189 196 195 204 217 222 219 216 213 212 212 205 200 194
207 208 192 206 211 218 231 234 257 260 254 251 249 234 235 242 228 213 202 199 267 292 286 275 280 231 193 188 197 185 192 197 204 206 204 202 202 205 207 200 191 190 184
203 196 210 230 242 226 215 198 234 257 268 271 259 252 249 249 242 235 219 196 192 234 263 267 273 265 209 189 188 184 186 197 201 205 201 194 197 204 204 201 195 182 173
205 212 241 242 251 268 276 200 252 264 284 278 257 255 264 262 261 253 238 224 202 198 236 251 244 245 215 200 190 183 199 197 205 208 211 208 199 198 201 200 188 177 174
196 202 220 211 190 215 252 359 286 289 289 288 289 276 278 274 274 274 255 236 224 198 226 267 265 247 192 181 173 170 185 195 213 214 213 213 210 203 200 196 189 181 181
185 175 156 131 131 64 23 359 303 306 288 288 297 297 295 296 287 269 259 248 238 221 200 246 279 282 243 193 168 171 187 197 207 221 218 216 212 208 203 198 193 187 186
135 100 110 108 83 56 21 353 316 313 317 291 284 289 296 309 289 273 257 250 250 247 194 188 245 268 308 170 123 128 154 272 231 214 216 220 218 211 208 205 202 199 195
139 121 110 98 93 70 43 9 3 359 359 343 317 300 298 290 277 275 259 244 238 228 177 166 191 207 235 197 129 161 245 280 264 247 227 216 216 215 214 212 211 207 201
133 125 105 77 69 80 56 17 351 351 352 340 326 317 300 306 294 271 253 222 202 201 187 182 188 182 208 184 195 190 200 267 290 242 219 241 210 221 224 220 218 213 206
121 111 105 90 54 40 40 5 4 1 331 318 314 314 309 323 334 327 291 240 212 203 200 199 203 205 225 219 196 188 179 187 276 245 165 247 194 226 234 224 218 210 207
131 124 98 75 20 300 326 343 346 347 312 302 295 303 320 344 336 336 340 325 305 268 217 194 199 219 216 212 189 201 203 201 227 228 156 247 225 231 235 229 217 212 210
142 143 148 139 360 308 320 332 349 11 350 320 300 282 304 330 340 346 359 357 331 320 270 217 211 223 223 211 197 204 208 218 268 249 165 210 232 231 240 229 222 215 215
126 137 189 192 224 296 306 331 11 17 1 340 337 353 26 342 343 4 22 358 338 326 321 244 222 225 223 217 197 170 184 177 249 258 192 186 223 244 269 252 235 220 218
163 191 254 249 219 254 275 306 16 78 25 345 343 345 350 340 334 5 19 337 313 302 313 318 298 275 256 243 220 203 193 186 195 239 215 177 196 163 290 277 237 216 217